1547722800.78,32714,0.0,0.0,-2.09,-24.71,-24.97,0,*50
1547722802.01,32715,0.0,0.0,-2.09,-25.23,-25.45,0,*59
1547722803.23,32716,0.0,0.0,-2.09,-24.97,-25.29,0,*5E
1547722804.5,32717,0.0,0.0,-2.11,-25.39,-25.71,0,*5E
1547722805.73,32718,0.0,0.0,-2.09,-25.09,-25.29,0,*56
1547722806.95,32719,0.0,0.0,-2.11,-24.97,-25.23,0,*52
1547722808.16,32720,0.0,0.0,-2.09,-24.61,-24.77,0,*58
1547722809.4,32721,0.0,0.0,-2.09,-24.87,-25.13,0,*52
1547722810.6,32722,0.0,0.0,-2.09,-25.61,-25.91,0,*52
1547722811.86,32723,0.0,0.0,-2.11,-25.39,-25.71,0,*59
1547722813.11,32724,0.0,0.0,-2.11,-24.93,-25.29,0,*52
1547722814.37,32725,0.0,0.0,-2.11,-25.91,-26.13,0,*5A
1547722815.61,32726,0.0,0.0,-2.13,-25.45,-25.91,0,*5B
1547722816.87,32727,0.0,0.0,-2.13,-26.17,-26.49,0,*58
1547722818.11,32728,0.0,0.0,-2.15,-25.71,-26.03,0,*5C
1547722819.34,32729,0.0,0.0,-2.13,-24.93,-25.13,0,*54
1547722820.57,32730,0.0,0.0,-2.13,-24.35,-24.47,0,*50
1547722821.82,32731,0.0,0.0,-2.15,-24.51,-24.71,0,*50
1547722823.06,32732,0.0,0.0,-2.13,-24.47,-24.61,0,*53
1547722824.31,32733,0.0,0.0,-2.13,-24.15,-24.35,0,*54
1547722825.54,32734,0.0,0.0,-2.13,-24.61,-24.77,0,*56
1547722826.8,32735,0.0,0.0,-2.11,-25.23,-25.55,0,*53
1547722828.04,32736,0.0,0.0,-2.11,-24.77,-25.09,0,*59
1547722829.25,32737,0.0,0.0,-2.09,-24.31,-24.47,0,*58
1547722830.53,32738,0.0,0.0,-2.11,-23.95,-24.15,0,*50
1547722831.74,32739,0.0,0.0,-2.09,-24.47,-24.61,0,*53
1547722833.01,32740,0.0,0.0,-2.09,-24.41,-24.71,0,*5A
1547722834.24,32741,0.0,0.0,-2.09,-24.25,-24.57,0,*5D
1547722835.48,32742,0.0,0.0,-2.07,-24.05,-24.35,0,*56
1547722836.71,32743,0.0,0.0,-2.05,-23.59,-23.69,0,*55
1547722837.94,32744,0.0,0.0,-2.05,-23.79,-24.11,0,*58
1547722839.2,32745,0.0,0.0,-2.05,-23.95,-24.21,0,*58
1547722840.44,32746,0.0,0.0,-2.01,-24.21,-24.31,0,*56
1547722841.67,32747,0.0,0.0,-2.01,-24.21,-24.47,0,*56
1547722842.92,32748,0.0,0.0,-1.99,-24.15,-24.35,0,*59
1547722844.18,32749,0.0,0.0,-1.99,-24.61,-24.67,0,*5C
1547722845.46,32750,0.0,0.0,-1.99,-24.67,-24.87,0,*5C
1547722846.69,32751,0.0,0.0,-1.99,-24.61,-24.77,0,*54
1547722847.95,32752,0.0,0.0,-1.99,-24.51,-24.67,0,*55
1547722849.19,32753,0.0,0.0,-1.97,-24.83,-25.09,0,*5C
1547722850.42,32754,0.0,0.0,-1.99,-25.61,-25.87,0,*5E
1547722851.68,32755,0.0,0.0,-2.01,-25.81,-25.97,0,*52
1547722852.94,32756,0.0,0.0,-1.99,-25.45,-25.61,0,*52
1547722854.21,32757,0.0,0.0,-1.99,-25.29,-25.45,0,*5F
1547722855.45,32758,0.0,0.0,-2.01,-25.61,-25.75,0,*5D
1547722856.66,32759,0.0,0.0,-2.01,-25.49,-25.65,0,*57
1547722857.86,32760,0.0,0.0,-2.01,-24.97,-25.19,0,*54
1547722859.12,32761,0.0,0.0,-1.99,-24.77,-24.83,0,*5B
1547722860.35,32762,0.0,0.0,-2.01,-25.03,-25.19,0,*5A
1547722861.58,32763,0.0,0.0,-2.01,-26.03,-26.17,0,*55
1547722862.82,32764,0.0,0.0,-2.01,-26.33,-26.61,0,*50
1547722864.02,32765,0.0,0.0,-2.01,-26.45,-26.65,0,*54
1547722865.26,32766,0.0,0.0,-2.05,-26.33,-26.49,0,*5C
1547722866.49,32767,0.0,0.0,-2.07,-26.23,-26.39,0,*59
1547722867.73,32768,0.0,0.0,-2.07,-26.39,-26.49,0,*5A
1547722868.95,32769,0.0,0.0,-2.09,-26.71,-26.87,0,*5B
1547722870.2,32770,0.0,0.0,-2.09,-26.55,-26.71,0,*5C
1547722871.43,32771,0.0,0.0,-2.09,-26.45,-26.71,0,*5C
1547722872.69,32772,0.0,0.0,-2.11,-27.29,-27.45,0,*5B
1547722873.94,32773,0.0,0.0,-2.13,-27.13,-27.35,0,*56
1547722875.23,32774,0.0,0.0,-2.17,-26.97,-27.35,0,*58
1547722876.5,32775,0.0,0.0,-2.15,-26.97,-27.23,0,*5C
1547722877.75,32776,0.0,0.0,-2.19,-27.35,-27.39,0,*51
1547722879.0,32777,0.0,0.0,-2.19,-27.19,-27.23,0,*55
1547722880.25,32778,0.0,0.0,-2.19,-26.93,-27.23,0,*59
1547722881.51,32779,0.0,0.0,-2.21,-27.03,-27.19,0,*52
1547722882.79,32780,0.0,0.0,-2.21,-27.19,-27.39,0,*5D
1547722884.05,32781,0.0,0.0,-2.21,-26.93,-27.03,0,*56
1547722885.32,32782,0.0,0.0,-2.21,-26.77,-26.87,0,*52
1547722886.58,32783,0.0,0.0,-2.23,-26.77,-26.81,0,*57
1547722887.82,32784,0.0,0.0,-2.27,-26.65,-26.81,0,*57
1547722889.07,32785,0.0,0.0,-2.27,-26.97,-27.07,0,*54
1547722890.28,32786,0.0,0.0,-2.27,-27.07,-27.13,0,*5A
1547722891.54,32787,0.0,0.0,-2.29,-26.97,-27.13,0,*5D
1547722892.75,32788,0.0,0.0,-2.27,-27.67,-27.77,0,*50
1547722893.97,32789,0.0,0.0,-2.31,-27.13,-27.29,0,*5E
1547722895.23,32790,0.0,0.0,-2.33,-27.07,-27.19,0,*52
1547722896.47,32791,0.0,0.0,-2.33,-27.03,-27.07,0,*58
1547722897.73,32792,0.0,0.0,-2.33,-27.39,-27.55,0,*55
1547722899.0,32793,0.0,0.0,-2.37,-27.93,-27.99,0,*50
1547722900.28,32794,0.0,0.0,-2.37,-27.83,-27.83,0,*5D
1547722901.52,32795,0.0,0.0,-2.39,-27.55,-27.35,0,*54
1547722902.74,32796,0.0,0.0,-2.39,-27.13,-27.03,0,*50
1547722903.98,32797,0.0,0.0,-2.39,-27.35,-27.29,0,*5D
1547722905.27,32798,0.0,0.0,-2.41,-26.81,-26.81,0,*50
1547722906.52,32799,0.0,0.0,-2.41,-26.55,-26.49,0,*5C
1547722907.79,32800,0.0,0.0,-2.39,-26.17,-26.29,0,*5C
1547722909.05,32801,0.0,0.0,-2.41,-26.55,-26.65,0,*5C
1547722910.33,32802,0.0,0.0,-2.41,-26.29,-26.29,0,*5C
1547722911.57,32803,0.0,0.0,-2.43,-26.39,-26.55,0,*55
1547722912.86,32804,0.0,0.0,-2.41,-26.33,-26.33,0,*5A
1547722914.15,32805,0.0,0.0,-2.41,-26.71,-26.81,0,*54
1547722915.36,32806,0.0,0.0,-2.45,-27.03,-27.03,0,*5C
1547722916.61,32807,0.0,0.0,-2.45,-26.77,-26.71,0,*5B
1547722917.82,32808,0.0,0.0,-2.43,-26.45,-26.45,0,*54
1547722919.04,32809,0.0,0.0,-2.43,-26.39,-26.39,0,*55
1547722920.31,32810,0.0,0.0,-2.43,-26.77,-26.77,0,*5D
1547722921.52,32811,0.0,0.0,-2.45,-27.03,-27.03,0,*5A
1547722922.72,32812,0.0,0.0,-2.45,-26.87,-26.87,0,*59
1547722923.93,32813,0.0,0.0,-2.43,-26.87,-26.87,0,*5E
1547722925.18,32814,0.0,0.0,-2.49,-26.81,-26.93,0,*50
1547722926.42,32815,0.0,0.0,-2.51,-26.49,-26.65,0,*55
1547722927.62,32816,0.0,0.0,-2.49,-26.49,-26.49,0,*51
1547722928.85,32817,0.0,0.0,-2.49,-26.07,-26.13,0,*55
1547722930.08,32818,0.0,0.0,-2.49,-25.45,-25.61,0,*59
1547722931.28,32819,0.0,0.0,-2.49,-25.91,-25.91,0,*5E
1547722932.49,32820,0.0,0.0,-2.49,-25.65,-25.65,0,*54
1547722933.73,32821,0.0,0.0,-2.45,-26.33,-26.39,0,*53
1547722934.93,32822,0.0,0.0,-2.49,-26.49,-26.45,0,*5A
1547722936.14,32823,0.0,0.0,-2.49,-26.45,-26.45,0,*57
1547722937.34,32824,0.0,0.0,-2.49,-26.61,-26.61,0,*50
1547722938.54,32825,0.0,0.0,-2.49,-26.39,-26.23,0,*5A
1547722939.74,32826,0.0,0.0,-2.49,-26.61,-26.45,0,*54
1547722941.03,32827,0.0,0.0,-2.51,-26.81,-26.81,0,*5A
1547722942.26,32828,0.0,0.0,-2.49,-26.45,-26.29,0,*56
1547722943.51,32829,0.0,0.0,-2.51,-26.23,-26.13,0,*57
1547722944.74,32830,0.0,0.0,-2.51,-26.49,-26.45,0,*50
1547722945.97,32831,0.0,0.0,-2.51,-26.61,-26.45,0,*5B
1547722947.21,32832,0.0,0.0,-2.51,-26.45,-26.39,0,*55
1547722948.47,32833,0.0,0.0,-2.51,-26.45,-26.29,0,*55
1547722949.69,32834,0.0,0.0,-2.49,-26.23,-25.97,0,*5D
1547722950.92,32835,0.0,0.0,-2.51,-26.61,-26.49,0,*53
1547722952.15,32836,0.0,0.0,-2.51,-26.45,-26.39,0,*51
1547722953.41,32837,0.0,0.0,-2.51,-25.75,-25.65,0,*5A
1547722954.64,32838,0.0,0.0,-2.49,-26.23,-26.13,0,*5E
1547722955.89,32839,0.0,0.0,-2.51,-26.23,-25.97,0,*59
1547722957.15,32840,0.0,0.0,-2.51,-26.29,-26.23,0,*51
1547722958.38,32841,0.0,0.0,-2.53,-26.45,-26.33,0,*59
1547722959.64,32842,0.0,0.0,-2.53,-26.29,-26.13,0,*52
1547722960.87,32843,0.0,0.0,-2.53,-26.55,-26.49,0,*57
1547722962.07,32844,0.0,0.0,-2.53,-26.45,-26.45,0,*5D
1547722963.33,32845,0.0,0.0,-2.55,-27.19,-27.03,0,*51
1547722964.59,32846,0.0,0.0,-2.55,-26.97,-26.87,0,*58
1547722965.82,32847,0.0,0.0,-2.55,-26.49,-26.45,0,*54
1547722967.11,32848,0.0,0.0,-2.55,-26.97,-26.81,0,*50
1547722968.36,32849,0.0,0.0,-2.55,-26.87,-26.81,0,*50
1547722969.61,32850,0.0,0.0,-2.57,-26.71,-26.71,0,*5C
1547722970.84,32851,0.0,0.0,-2.57,-26.39,-26.17,0,*51
1547722972.08,32852,0.0,0.0,-2.57,-25.55,-25.49,0,*53
1547722973.29,32853,0.0,0.0,-2.57,-25.49,-25.39,0,*58
1547722974.53,32854,0.0,0.0,-2.57,-25.55,-25.61,0,*5F
1547722975.77,32855,0.0,0.0,-2.53,-25.65,-25.71,0,*58
1547722977.03,32856,0.0,0.0,-2.55,-25.87,-25.71,0,*51
1547722978.32,32857,0.0,0.0,-2.55,-25.81,-25.71,0,*56
1547722979.61,32858,0.0,0.0,-2.55,-25.71,-25.55,0,*50
1547722980.88,32859,0.0,0.0,-2.55,-25.55,-25.49,0,*5A
1547722982.1,32860,0.0,0.0,-2.53,-25.49,-25.49,0,*5B
1547722983.33,32861,0.0,0.0,-2.53,-25.49,-25.45,0,*56
1547722984.58,32862,0.0,0.0,-2.53,-25.45,-25.45,0,*59
1547722985.83,32863,0.0,0.0,-2.55,-25.45,-25.35,0,*59
1547722987.06,32864,0.0,0.0,-2.51,-25.23,-25.09,0,*55
1547722988.31,32865,0.0,0.0,-2.51,-24.77,-24.67,0,*5D
1547722989.54,32866,0.0,0.0,-2.49,-25.29,-25.23,0,*5C
1547722990.75,32867,0.0,0.0,-2.49,-25.65,-25.49,0,*59
1547722991.95,32868,0.0,0.0,-2.49,-25.23,-25.09,0,*50
1547722993.16,32869,0.0,0.0,-2.49,-24.77,-24.77,0,*59
1547722994.37,32870,0.0,0.0,-2.49,-24.51,-24.51,0,*51
1547722995.58,32871,0.0,0.0,-2.45,-25.35,-25.39,0,*50
1547722996.79,32872,0.0,0.0,-2.43,-25.61,-25.61,0,*59
1547722998.0,32873,0.0,0.0,-2.45,-25.09,-24.93,0,*5C
1547722999.21,32874,0.0,0.0,-2.43,-24.77,-24.77,0,*5F
1547723000.44,32875,0.0,0.0,-2.45,-24.77,-24.87,0,*57
1547723001.65,32876,0.0,0.0,-2.45,-25.09,-25.09,0,*5B
1547723002.91,32877,0.0,0.0,-2.43,-25.03,-25.03,0,*5C
1547723004.18,32878,0.0,0.0,-2.43,-24.41,-24.25,0,*51
1547723005.44,32879,0.0,0.0,-2.41,-24.35,-24.41,0,*53
1547723006.71,32880,0.0,0.0,-2.41,-25.49,-25.55,0,*5B
1547723007.95,32881,0.0,0.0,-2.41,-25.49,-25.49,0,*57
1547723009.18,32882,0.0,0.0,-2.41,-25.19,-25.35,0,*5A
1547723010.44,32883,0.0,0.0,-2.41,-25.29,-25.35,0,*58
1547723011.68,32884,0.0,0.0,-2.39,-24.41,-24.51,0,*5C
1547723012.92,32885,0.0,0.0,-2.41,-24.51,-24.57,0,*55
1547723014.16,32886,0.0,0.0,-2.39,-24.41,-24.57,0,*58
1547723015.41,32887,0.0,0.0,-2.39,-24.83,-24.97,0,*5B
1547723016.67,32888,0.0,0.0,-2.37,-24.51,-24.67,0,*5A
1547723017.93,32889,0.0,0.0,-2.37,-24.77,-24.83,0,*55
1547723019.17,32890,0.0,0.0,-2.37,-24.77,-24.93,0,*5C
1547723020.41,32891,0.0,0.0,-2.37,-24.35,-24.51,0,*55
1547723021.65,32892,0.0,0.0,-2.35,-24.31,-24.41,0,*51
1547723022.89,32893,0.0,0.0,-2.35,-25.19,-25.29,0,*54
1547723024.15,32894,0.0,0.0,-2.37,-25.65,-25.81,0,*58
1547723025.37,32895,0.0,0.0,-2.35,-25.39,-25.61,0,*5C
1547723026.6,32896,0.0,0.0,-2.37,-25.09,-25.23,0,*58
1547723027.84,32897,0.0,0.0,-2.35,-24.57,-24.87,0,*5E
1547723029.07,32898,0.0,0.0,-2.35,-23.89,-23.95,0,*51
1547723030.31,32899,0.0,0.0,-2.33,-24.31,-24.47,0,*5A
1547723031.58,32900,0.0,0.0,-2.33,-24.47,-24.71,0,*5F
1547723032.82,32901,0.0,0.0,-2.33,-25.19,-25.39,0,*59
1547723034.08,32902,0.0,0.0,-2.33,-25.19,-25.55,0,*50
1547723035.32,32903,0.0,0.0,-2.31,-25.35,-25.55,0,*5D
1547723036.62,32904,0.0,0.0,-2.33,-25.55,-25.71,0,*58
1547723037.88,32905,0.0,0.0,-2.33,-24.61,-24.87,0,*57
1547723039.1,32906,0.0,0.0,-2.31,-25.39,-25.65,0,*57
1547723040.37,32907,0.0,0.0,-2.31,-25.71,-25.97,0,*57
1547723041.63,32908,0.0,0.0,-2.35,-26.17,-26.55,0,*52
1547723042.89,32909,0.0,0.0,-2.37,-26.45,-26.81,0,*5F
1547723044.19,32910,0.0,0.0,-2.37,-26.33,-26.77,0,*5F
1547723045.48,32911,0.0,0.0,-2.37,-25.97,-26.33,0,*53
1547723046.74,32912,0.0,0.0,-2.37,-26.13,-26.61,0,*58
1547723047.98,32913,0.0,0.0,-2.37,-25.91,-26.23,0,*56
1547723049.24,32914,0.0,0.0,-2.39,-26.29,-26.71,0,*58
1547723050.47,32915,0.0,0.0,-2.39,-26.13,-26.49,0,*5B
1547723051.74,32916,0.0,0.0,-2.41,-25.55,-26.03,0,*58
1547723052.99,32917,0.0,0.0,-2.43,-25.55,-26.03,0,*5B
1547723054.23,32918,0.0,0.0,-2.39,-25.55,-25.87,0,*56
1547723055.47,32919,0.0,0.0,-2.43,-25.35,-25.75,0,*51
1547723056.73,32920,0.0,0.0,-2.41,-24.83,-25.19,0,*5F
1547723057.97,32921,0.0,0.0,-2.39,-25.35,-25.75,0,*57
1547723059.26,32922,0.0,0.0,-2.41,-25.55,-26.13,0,*5E
1547723060.52,32923,0.0,0.0,-2.41,-25.65,-26.17,0,*58
1547723061.76,32924,0.0,0.0,-2.43,-25.75,-26.23,0,*5B
1547723063.02,32925,0.0,0.0,-2.43,-25.03,-25.45,0,*58
1547723064.26,32926,0.0,0.0,-2.43,-24.47,-24.87,0,*55
1547723065.48,32927,0.0,0.0,-2.43,-24.47,-25.09,0,*53
1547723066.72,32928,0.0,0.0,-2.41,-24.51,-24.97,0,*5F
1547723067.98,32929,0.0,0.0,-2.41,-23.89,-24.25,0,*55
1547723069.27,32930,0.0,0.0,-2.41,-24.15,-24.71,0,*5E
1547723070.54,32931,0.0,0.0,-2.39,-24.25,-24.83,0,*5E
1547723071.81,32932,0.0,0.0,-2.37,-24.21,-24.61,0,*5B
1547723073.08,32933,0.0,0.0,-2.37,-23.69,-24.15,0,*52
1547723074.32,32934,0.0,0.0,-2.35,-24.11,-24.61,0,*5C
1547723075.56,32935,0.0,0.0,-2.35,-23.95,-24.57,0,*53
1547723076.79,32936,0.0,0.0,-2.35,-24.15,-24.61,0,*5A
1547723078.0,32937,0.0,0.0,-2.35,-24.61,-25.19,0,*56
1547723079.25,32938,0.0,0.0,-2.35,-24.25,-24.77,0,*50
1547723080.51,32939,0.0,0.0,-2.33,-24.15,-24.77,0,*54
1547723081.73,32940,0.0,0.0,-2.31,-24.57,-25.23,0,*5E
1547723082.99,32941,0.0,0.0,-2.33,-24.15,-24.77,0,*5B
1547723084.23,32942,0.0,0.0,-2.33,-24.05,-24.61,0,*5E
1547723085.49,32943,0.0,0.0,-2.31,-24.11,-24.67,0,*5E
1547723086.72,32944,0.0,0.0,-2.27,-24.05,-24.67,0,*5B
1547723087.99,32945,0.0,0.0,-2.29,-24.41,-25.13,0,*56
1547723089.26,32946,0.0,0.0,-2.29,-24.83,-25.49,0,*54
1547723090.52,32947,0.0,0.0,-2.29,-24.87,-25.39,0,*56
1547723091.76,32948,0.0,0.0,-2.29,-24.57,-25.19,0,*56
1547723093.0,32949,0.0,0.0,-2.29,-24.51,-25.23,0,*58
1547723094.23,32950,0.0,0.0,-2.29,-23.89,-24.51,0,*56
1547723095.49,32951,0.0,0.0,-2.29,-23.99,-24.61,0,*55
1547723096.71,32952,0.0,0.0,-2.27,-24.31,-24.97,0,*54
1547723097.94,32953,0.0,0.0,-2.27,-24.67,-25.35,0,*5F
1547723099.16,32954,0.0,0.0,-2.27,-25.09,-25.65,0,*54
1547723100.37,32955,0.0,0.0,-2.27,-25.09,-25.65,0,*55
1547723101.61,32956,0.0,0.0,-2.27,-24.87,-25.39,0,*58
1547723102.85,32957,0.0,0.0,-2.27,-24.21,-25.09,0,*56
1547723104.09,32958,0.0,0.0,-2.27,-24.15,-24.77,0,*56
1547723105.33,32959,0.0,0.0,-2.27,-24.21,-24.77,0,*50
1547723106.58,32960,0.0,0.0,-2.27,-23.33,-23.95,0,*55
1547723107.82,32961,0.0,0.0,-2.27,-23.33,-23.79,0,*56
1547723109.08,32962,0.0,0.0,-2.21,-23.75,-24.25,0,*5F
1547723110.37,32963,0.0,0.0,-2.21,-24.25,-24.87,0,*54
1547723111.59,32964,0.0,0.0,-2.23,-24.31,-24.93,0,*51
1547723112.83,32965,0.0,0.0,-2.21,-24.31,-24.93,0,*52
1547723114.07,32966,0.0,0.0,-2.21,-24.31,-24.93,0,*51
1547723115.31,32967,0.0,0.0,-2.21,-24.31,-24.93,0,*50
1547723116.54,32968,0.0,0.0,-2.19,-24.15,-24.77,0,*58
1547723117.8,32969,0.0,0.0,-2.21,-23.79,-24.41,0,*5A
1547723119.05,32970,0.0,0.0,-2.21,-23.59,-23.99,0,*52
1547723120.28,32971,0.0,0.0,-2.19,-23.59,-24.11,0,*5F
1547723121.48,32972,0.0,0.0,-2.19,-23.43,-23.89,0,*51
1547723122.72,32973,0.0,0.0,-2.17,-23.75,-24.35,0,*5B
1547723124.0,32974,0.0,0.0,-2.17,-24.25,-24.83,0,*53
1547723125.26,32975,0.0,0.0,-2.17,-24.41,-24.97,0,*55
1547723126.52,32976,0.0,0.0,-2.17,-24.05,-24.71,0,*5E
1547723127.77,32977,0.0,0.0,-2.15,-24.41,-25.09,0,*53
1547723129.01,32978,0.0,0.0,-2.15,-24.41,-25.09,0,*5C
1547723130.25,32979,0.0,0.0,-2.15,-24.35,-24.87,0,*59
1547723131.52,32980,0.0,0.0,-2.17,-24.71,-25.35,0,*55
1547723132.76,32981,0.0,0.0,-2.17,-24.51,-25.09,0,*59
1547723134.05,32982,0.0,0.0,-2.17,-24.25,-24.83,0,*5A
1547723135.28,32983,0.0,0.0,-2.17,-24.57,-25.23,0,*55
1547723136.56,32984,0.0,0.0,-2.17,-25.03,-25.81,0,*5A
1547723137.82,32985,0.0,0.0,-2.17,-24.83,-25.39,0,*51
1547723139.11,32986,0.0,0.0,-2.17,-24.41,-25.03,0,*55
1547723140.3,32987,0.0,0.0,-2.19,-24.93,-25.39,0,*5C
1547723141.54,32988,0.0,0.0,-2.19,-25.09,-25.75,0,*59
1547723142.76,32989,0.0,0.0,-2.17,-25.23,-25.87,0,*53
1547723143.98,32990,0.0,0.0,-2.19,-24.47,-25.09,0,*50
1547723145.19,32991,0.0,0.0,-2.19,-24.47,-25.09,0,*51
1547723146.41,32992,0.0,0.0,-2.19,-24.47,-25.23,0,*5A
1547723147.62,32993,0.0,0.0,-2.19,-24.57,-25.09,0,*52
1547723148.85,32994,0.0,0.0,-2.19,-24.11,-24.77,0,*5F
1547723150.05,32995,0.0,0.0,-2.19,-23.79,-24.57,0,*55
1547723151.33,32996,0.0,0.0,-2.17,-23.69,-24.25,0,*5C
1547723152.61,32997,0.0,0.0,-2.17,-23.95,-24.71,0,*5F
1547723153.87,32998,0.0,0.0,-2.17,-24.05,-24.71,0,*5E
1547723155.1,32999,0.0,0.0,-2.17,-24.35,-24.97,0,*54
1547723156.39,33000,0.0,0.0,-2.17,-24.25,-25.03,0,*51
1547723157.68,33001,0.0,0.0,-2.17,-24.21,-24.83,0,*5D
1547723158.91,33002,0.0,0.0,-2.19,-23.99,-24.61,0,*58
1547723160.17,33003,0.0,0.0,-2.17,-23.59,-24.25,0,*5B
1547723161.43,33004,0.0,0.0,-2.17,-24.21,-24.97,0,*5D
1547723162.68,33005,0.0,0.0,-2.17,-24.67,-25.35,0,*57
1547723163.96,33006,0.0,0.0,-2.17,-24.71,-25.49,0,*58
1547723165.22,33007,0.0,0.0,-2.17,-24.35,-25.03,0,*57
1547723166.48,33008,0.0,0.0,-2.17,-24.41,-25.19,0,*50
1547723167.71,33009,0.0,0.0,-2.17,-24.51,-25.23,0,*59
1547723168.97,33010,0.0,0.0,-2.17,-24.05,-24.71,0,*56
1547723170.21,33011,0.0,0.0,-2.15,-23.75,-24.41,0,*56
1547723171.45,33012,0.0,0.0,-2.15,-23.95,-24.57,0,*5C
1547723172.68,33013,0.0,0.0,-2.13,-24.05,-24.93,0,*5D
1547723173.94,33014,0.0,0.0,-2.13,-23.99,-24.77,0,*52
1547723175.17,33015,0.0,0.0,-2.13,-23.89,-24.51,0,*56
1547723176.4,33016,0.0,0.0,-2.13,-23.89,-24.61,0,*56
1547723177.63,33017,0.0,0.0,-2.13,-23.79,-24.51,0,*5B
1547723178.86,33018,0.0,0.0,-2.13,-23.79,-24.47,0,*53
1547723180.12,33019,0.0,0.0,-2.13,-23.65,-24.47,0,*5F
1547723181.37,33020,0.0,0.0,-2.13,-23.49,-24.31,0,*5A
1547723182.63,33021,0.0,0.0,-2.11,-23.59,-24.15,0,*5E
1547723183.84,33022,0.0,0.0,-2.09,-24.31,-24.97,0,*57
1547723185.07,33023,0.0,0.0,-2.09,-23.99,-24.77,0,*5D
1547723186.3,33024,0.0,0.0,-2.09,-23.85,-24.57,0,*55
1547723187.53,33025,0.0,0.0,-2.09,-23.75,-24.41,0,*5C
1547723188.74,33026,0.0,0.0,-2.09,-23.79,-24.47,0,*55
1547723189.98,33027,0.0,0.0,-2.09,-24.41,-25.09,0,*53
1547723191.26,33028,0.0,0.0,-2.07,-23.69,-24.41,0,*52
1547723192.51,33029,0.0,0.0,-2.07,-23.69,-24.35,0,*50
1547723193.76,33030,0.0,0.0,-2.07,-23.39,-24.11,0,*5B
1547723195.02,33031,0.0,0.0,-2.05,-23.53,-24.25,0,*53
1547723196.26,33032,0.0,0.0,-2.07,-24.51,-25.23,0,*50
1547723197.54,33033,0.0,0.0,-2.07,-24.71,-25.39,0,*58
1547723198.78,33034,0.0,0.0,-2.05,-24.71,-25.35,0,*51
1547723200.05,33035,0.0,0.0,-2.05,-24.21,-24.87,0,*5D
1547723201.27,33036,0.0,0.0,-2.05,-23.89,-24.67,0,*55
1547723202.51,33037,0.0,0.0,-2.05,-24.05,-24.83,0,*5D
1547723203.75,33038,0.0,0.0,-2.05,-24.35,-25.03,0,*58
1547723204.95,33039,0.0,0.0,-2.01,-25.13,-25.87,0,*54
1547723206.19,33040,0.0,0.0,-2.05,-24.87,-25.49,0,*50
1547723207.4,33041,0.0,0.0,-2.05,-24.35,-25.19,0,*5D
1547723208.68,33042,0.0,0.0,-2.07,-24.83,-25.49,0,*54
1547723209.93,33043,0.0,0.0,-2.07,-24.93,-25.71,0,*5F
1547723211.14,33044,0.0,0.0,-2.05,-24.35,-24.93,0,*5B
1547723212.38,33045,0.0,0.0,-2.05,-24.67,-25.19,0,*5E
1547723213.65,33046,0.0,0.0,-2.07,-24.83,-25.49,0,*50
1547723214.89,33047,0.0,0.0,-2.07,-24.51,-25.19,0,*5B
1547723216.1,33048,0.0,0.0,-2.05,-23.89,-24.57,0,*5F
1547723217.38,33049,0.0,0.0,-2.07,-23.95,-24.67,0,*52
1547723218.62,33050,0.0,0.0,-2.05,-24.35,-25.03,0,*56
1547723219.86,33051,0.0,0.0,-2.05,-24.25,-24.93,0,*5E
1547723221.1,33052,0.0,0.0,-2.05,-24.41,-25.09,0,*5D
1547723222.37,33053,0.0,0.0,-2.05,-24.41,-25.03,0,*56
1547723223.6,33054,0.0,0.0,-2.01,-24.51,-25.29,0,*5C
1547723224.85,33055,0.0,0.0,-2.05,-24.71,-25.23,0,*51
1547723226.08,33056,0.0,0.0,-2.05,-24.67,-25.23,0,*55
1547723227.32,33057,0.0,0.0,-2.05,-24.87,-25.49,0,*56
1547723228.57,33058,0.0,0.0,-2.05,-24.71,-25.49,0,*50
1547723229.84,33059,0.0,0.0,-2.07,-25.03,-25.65,0,*59
1547723231.1,33060,0.0,0.0,-2.05,-24.41,-25.03,0,*56
1547723232.35,33061,0.0,0.0,-2.05,-24.41,-25.09,0,*5D
1547723233.64,33062,0.0,0.0,-2.07,-25.03,-25.71,0,*54
1547723234.87,33063,0.0,0.0,-2.05,-24.93,-25.71,0,*5F
1547723236.14,33064,0.0,0.0,-2.05,-24.25,-24.71,0,*54
1547723237.43,33065,0.0,0.0,-2.07,-24.25,-25.03,0,*53
1547723238.64,33066,0.0,0.0,-2.05,-24.57,-25.19,0,*5C
1547723239.88,33067,0.0,0.0,-2.05,-24.67,-25.23,0,*57
1547723241.11,33068,0.0,0.0,-2.05,-25.19,-25.71,0,*57
1547723242.35,33069,0.0,0.0,-2.05,-24.83,-25.35,0,*54
1547723243.59,33070,0.0,0.0,-2.05,-25.09,-25.71,0,*5F
1547723244.85,33071,0.0,0.0,-2.07,-23.89,-24.41,0,*50
1547723246.11,33072,0.0,0.0,-2.05,-24.25,-24.83,0,*5E
1547723247.34,33073,0.0,0.0,-2.05,-24.67,-25.19,0,*5B
1547723248.56,33074,0.0,0.0,-2.05,-24.51,-25.19,0,*59
1547723249.82,33075,0.0,0.0,-2.07,-24.67,-25.23,0,*56
1547723251.07,33076,0.0,0.0,-2.05,-24.71,-25.35,0,*57
1547723252.27,33077,0.0,0.0,-2.01,-24.61,-25.19,0,*5D
1547723253.49,33078,0.0,0.0,-2.05,-24.51,-25.19,0,*55
1547723254.7,33079,0.0,0.0,-2.05,-24.35,-24.93,0,*55
1547723255.96,33080,0.0,0.0,-2.05,-24.25,-24.87,0,*57
1547723257.17,33081,0.0,0.0,-2.05,-24.35,-24.93,0,*52
1547723258.4,33082,0.0,0.0,-2.01,-24.15,-24.77,0,*5D
1547723259.63,33083,0.0,0.0,-2.01,-23.85,-24.47,0,*51
1547723260.9,33084,0.0,0.0,-1.99,-24.21,-24.77,0,*5E
1547723262.16,33085,0.0,0.0,-1.99,-23.99,-24.61,0,*5C
1547723263.39,33086,0.0,0.0,-2.01,-23.85,-24.47,0,*54
1547723264.64,33087,0.0,0.0,-1.99,-23.85,-24.47,0,*57
1547723265.87,33088,0.0,0.0,-1.97,-23.85,-24.47,0,*56
1547723267.1,33089,0.0,0.0,-1.97,-23.99,-24.61,0,*5E
1547723268.36,33090,0.0,0.0,-1.97,-24.11,-24.71,0,*50
1547723269.61,33091,0.0,0.0,-1.95,-23.95,-24.57,0,*5C
1547723270.89,33092,0.0,0.0,-1.95,-23.69,-24.25,0,*59
1547723272.17,33093,0.0,0.0,-1.95,-23.33,-23.85,0,*5A
1547723273.42,33094,0.0,0.0,-1.93,-23.53,-24.11,0,*57
1547723274.65,33095,0.0,0.0,-1.93,-23.29,-23.79,0,*52
1547723275.9,33096,0.0,0.0,-1.91,-23.29,-23.89,0,*5C
1547723277.18,33097,0.0,0.0,-1.91,-23.53,-24.11,0,*56
1547723278.42,33098,0.0,0.0,-1.91,-23.43,-24.05,0,*5D
1547723279.65,33099,0.0,0.0,-1.89,-23.49,-24.05,0,*5F
1547723280.92,33100,0.0,0.0,-1.87,-24.11,-24.67,0,*5E
1547723282.18,33101,0.0,0.0,-1.89,-24.15,-24.71,0,*52
1547723283.45,33102,0.0,0.0,-1.87,-23.69,-24.41,0,*50
1547723284.73,33103,0.0,0.0,-1.87,-23.53,-24.11,0,*5D
1547723285.96,33104,0.0,0.0,-1.85,-23.43,-23.99,0,*5E
1547723287.19,33105,0.0,0.0,-1.85,-24.11,-24.77,0,*58
1547723288.42,33106,0.0,0.0,-1.85,-24.25,-24.93,0,*56
1547723289.71,33107,0.0,0.0,-1.83,-24.87,-25.55,0,*52
1547723290.97,33108,0.0,0.0,-1.85,-25.29,-25.97,0,*50
1547723292.2,33109,0.0,0.0,-1.87,-24.97,-25.61,0,*5E
1547723293.46,33110,0.0,0.0,-1.87,-24.97,-25.55,0,*51
1547723294.71,33111,0.0,0.0,-1.87,-24.77,-25.45,0,*5F
1547723295.94,33112,0.0,0.0,-1.87,-24.57,-25.13,0,*5D
1547723297.18,33113,0.0,0.0,-1.89,-24.31,-24.87,0,*5E
1547723298.39,33114,0.0,0.0,-1.89,-23.79,-24.61,0,*5A
1547723299.64,33115,0.0,0.0,-1.87,-23.79,-24.41,0,*57
1547723300.9,33116,0.0,0.0,-1.87,-23.85,-24.47,0,*51
1547723302.11,33117,0.0,0.0,-1.85,-24.31,-24.97,0,*57
1547723303.33,33118,0.0,0.0,-1.89,-25.29,-25.91,0,*5B
1547723304.56,33119,0.0,0.0,-1.87,-24.77,-25.39,0,*5C
1547723305.84,33120,0.0,0.0,-1.87,-23.65,-24.25,0,*5E
1547723307.1,33121,0.0,0.0,-1.87,-23.43,-23.99,0,*5B
1547723308.3,33122,0.0,0.0,-1.85,-23.13,-23.79,0,*51
1547723309.53,33123,0.0,0.0,-1.85,-22.87,-23.33,0,*52
1547723310.79,33124,0.0,0.0,-1.83,-23.49,-24.05,0,*52
1547723312.02,33125,0.0,0.0,-1.81,-23.75,-24.21,0,*58
1547723313.28,33126,0.0,0.0,-1.81,-23.49,-24.21,0,*54
1547723314.54,33127,0.0,0.0,-1.77,-23.39,-23.99,0,*5F
1547723315.77,33128,0.0,0.0,-1.81,-24.11,-24.77,0,*53
1547723317.01,33129,0.0,0.0,-1.81,-24.41,-25.09,0,*5F
1547723318.28,33130,0.0,0.0,-1.77,-24.51,-25.29,0,*5D
1547723319.57,33131,0.0,0.0,-1.77,-24.15,-24.83,0,*5D
1547723320.77,33132,0.0,0.0,-1.81,-24.35,-24.93,0,*54
1547723322.01,33133,0.0,0.0,-1.81,-24.61,-25.29,0,*54
1547723323.22,33134,0.0,0.0,-1.81,-24.61,-25.39,0,*52
1547723324.45,33135,0.0,0.0,-1.81,-25.03,-25.61,0,*5B
1547723325.66,33136,0.0,0.0,-1.81,-25.49,-26.23,0,*53
1547723326.86,33137,0.0,0.0,-1.81,-25.35,-26.03,0,*5B
1547723328.1,33138,0.0,0.0,-1.83,-25.09,-25.87,0,*56
1547723329.34,33139,0.0,0.0,-1.85,-24.83,-25.61,0,*5A
1547723330.61,33140,0.0,0.0,-1.83,-24.71,-25.39,0,*52
1547723331.81,33141,0.0,0.0,-1.85,-24.57,-25.23,0,*5A
1547723333.05,33142,0.0,0.0,-1.85,-24.61,-25.29,0,*56
1547723334.28,33143,0.0,0.0,-1.85,-24.41,-24.97,0,*51
1547723335.53,33144,0.0,0.0,-1.85,-24.15,-24.83,0,*52
1547723336.74,33145,0.0,0.0,-1.85,-24.31,-24.93,0,*54
1547723337.95,33146,0.0,0.0,-1.85,-24.47,-25.23,0,*5C
1547723339.22,33147,0.0,0.0,-1.83,-24.11,-24.61,0,*5F
1547723340.5,33148,0.0,0.0,-1.83,-23.65,-24.21,0,*50
1547723341.78,33149,0.0,0.0,-1.83,-23.49,-24.11,0,*5C
1547723343.07,33150,0.0,0.0,-1.77,-23.33,-23.85,0,*58
1547723344.34,33151,0.0,0.0,-1.77,-24.25,-24.93,0,*59
1547723345.58,33152,0.0,0.0,-1.77,-24.77,-25.39,0,*5C
1547723346.82,33153,0.0,0.0,-1.77,-24.77,-25.23,0,*56
1547723348.07,33154,0.0,0.0,-1.77,-24.77,-25.49,0,*5D
1547723349.28,33155,0.0,0.0,-1.81,-25.39,-26.03,0,*53
1547723350.51,33156,0.0,0.0,-1.81,-25.61,-26.33,0,*5E
1547723351.75,33157,0.0,0.0,-1.83,-25.39,-26.07,0,*57
1547723353.01,33158,0.0,0.0,-1.83,-24.87,-25.49,0,*55